Location: Allonne
(49.4086°N, 2.1143°E)
Time: 10:47:23
(UTC+00:00)

Daily predictions for brighter satellites

Satellite Brightness Start Highest point End
(mag) Time Altitude Azimuth Time Altitude Azimuth Time Altitude Azimuth
COSMOS 2406 4.5 16:36:47 10° N 16:40:58 20° NE 16:45:08 10° E
Cosmos 2084 Rocket 3.4 16:37:13 10° SW 16:41:24 80° SE 16:45:37 10° NE
Cosmos 2100 Rocket 4.4 16:37:22 10° SSW 16:43:31 68° WNW 16:49:40 10° N
ATLAS CENTAUR R/B 2.5 16:40:52 10° WSW 16:43:56 28° NW 16:47:00 10° NNE
Cosmos 1441 Rocket 3.2 16:42:29 10° NNW 16:45:51 72° W 16:49:11 10° S
Cosmos 2221 Rocket 4.3 16:42:02 10° NNW 16:46:28 59° W 16:50:49 10° S
SAR-Lupe-4 4.0 16:43:08 10° SE 16:46:30 40° ENE 16:49:53 10° N
Cosmos 1833 Rocket 2.9 16:40:57 10° NNW 16:46:37 81° WSW 16:52:16 10° SSE
ARIANE 5 R/B 2.7 16:42:26 10° SE 16:47:11 47° ENE 16:52:00 10° N
USA 215 3.4 16:48:16 10° ESE 16:54:49 86° SSW 17:01:25 10° WNW
Timation 1 Rocket 4.5 16:49:07 10° NNW 16:54:58 53° NE 17:00:48 10° SE
IRS-P3 4.4 16:52:57 10° SE 16:57:59 44° ENE 17:03:02 10° N
MOS 1 Rocket 3.8 16:56:16 10° SE 17:00:07 32° ENE 17:04:08 10° N
ATLAS 5 CENTAUR R/B 2.4 16:56:04 10° NW 17:00:21 61° SW 17:05:40 10° SSE
Cosmos 1484 Rocket 4.0 17:00:44 10° S 17:04:05 42° W 17:07:29 10° NNW
Iridium 4 Rocket 4.2 17:01:21 10° SSW 17:06:16 52° W 17:10:49 10° N
Resurs 01 Rocket 3.6 17:08:57 11° NE 17:08:57 11° NE 17:09:25 10° NE
Cosmos 2233 Rocket 4.0 17:02:17 10° S 17:08:35 83° E 17:14:58 10° N
RESURS DK-1 2.3 17:05:11 10° NNW 17:09:10 58° ENE 17:13:06 10° SE
Cosmos 1602 4.3 17:06:59 10° NNE 17:09:29 22° ENE 17:11:58 10° SE
Cosmos 407 Rocket 3.8 17:04:42 10° S 17:09:37 45° ESE 17:14:31 10° NE
Cosmos 1725 Rocket 4.4 17:03:23 10° SSW 17:09:38 70° WNW 17:15:58 10° N
Cosmos 2061 Rocket 4.0 17:04:50 10° S 17:11:07 79° E 17:17:22 10° NNE
ISS -3.0 17:11:55 10° SW 17:15:05 41° SSE 17:17:12 18° E
Cosmos 1782 Rocket 3.7 17:10:56 10° SSW 17:15:23 79° W 17:19:50 10° N
CZ-2D R/B 2.6 17:13:11 10° SSE 17:16:19 73° ENE 17:19:29 10° N
Cosmos 1869 3.2 17:13:46 10° SSE 17:17:09 46° E 17:20:31 10° NNE
ERS-1 4.4 17:13:12 10° SSE 17:18:20 73° ENE 17:23:26 10° NNW
USA 281 4.4 17:15:06 14° ENE 17:18:52 22° NE 17:23:41 10° N
SPOT 1/Viking Rocket 3.9 17:14:21 10° SE 17:19:08 40° ENE 17:23:59 10° N
Cosmos 1300 Rocket 4.0 17:15:13 10° SSW 17:19:35 65° WNW 17:23:56 10° N
COSMO-SKYMED 1 3.7 17:21:26 18° ENE 17:22:36 20° E 17:25:41 10° SE
SJ-12 3.6 17:19:20 10° SSE 17:23:08 85° ENE 17:26:57 10° NNW
Cosmos 1464 Rocket 4.5 17:19:00 10° SSE 17:24:39 36° E 17:30:15 10° NNE
AQUARIUS 4.0 17:22:33 10° SSE 17:26:56 75° ENE 17:31:22 10° N
SL-12 R/B(2) 4.4 17:19:39 10° SSW 17:27:28 65° ESE 17:36:59 10° NE
Cosmos 540 Rocket 3.4 17:24:03 10° NNW 17:29:14 81° ENE 17:34:20 10° SSE
BREEZE-M DEB (TANK) 2.5 17:26:59 10° SW 17:29:23 53° SSE 17:32:21 20° E
Cosmos 1400 Rocket 3.8 17:28:10 10° SE 17:31:11 22° E 17:31:12 22° E
Cosmos 1975 Rocket 3.5 17:28:16 10° NNW 17:32:35 63° W 17:36:54 10° S
Spot 4 Rocket 4.3 17:28:07 10° SE 17:32:56 44° ENE 17:37:47 10° N
Cosmos 1763 Rocket 3.6 17:29:27 10° NNW 17:34:42 79° WSW 17:39:50 10° SSE
Cosmos 1812 2.1 17:33:42 10° S 17:36:30 46° E 17:37:34 30° NE
Cosmos 1140 Rocket 4.1 17:36:26 10° SW 17:41:31 56° WNW 17:46:36 10° NNE
Cosmos 2151 Rocket 4.0 17:37:36 10° SSE 17:41:45 39° E 17:45:29 13° NNE
Cosmos 2058 2.7 17:38:42 10° N 17:42:38 60° ENE 17:46:34 10° SSE
SMAP 4.2 17:38:35 10° S 17:43:04 48° W 17:47:36 10° NNW
Cosmos 44 Rocket 3.4 17:39:38 10° SSW 17:44:19 57° ESE 17:47:06 24° NE
Cosmos 1943 Rocket 2.1 17:43:44 10° SSW 17:49:20 79° ESE 17:54:09 14° NNE
SKYMED 2 3.7 17:45:23 11° NNE 17:49:27 52° E 17:53:41 10° S
Helios 1A Rocket 3.5 17:51:57 28° SE 17:51:57 28° SE 17:54:08 10° SSE
Okean 1 Rocket 3.7 17:47:47 10° SSE 17:51:41 32° E 17:51:42 32° E
CZ-2D R/B 3.3 17:47:51 10° SSE 17:51:58 68° ENE 17:56:10 10° N
SJ-7 4.2 17:48:24 10° SSE 17:51:58 51° ENE 17:55:34 10° N
IRAS Rocket 4.2 17:46:57 10° SSE 17:52:26 65° ENE 17:57:55 10° NNW
Sich 1 Rocket 4.2 17:48:38 10° SSE 17:52:43 34° E 17:53:29 32° ENE
Cosmos 2082 Rocket 2.1 17:47:44 10° NNW 17:53:23 81° ENE 17:59:00 10° SSE
PSLV R/B 3.5 17:49:39 10° SE 17:53:33 50° ENE 17:57:28 10° N
Cosmos 1072 Rocket 4.4 17:51:38 10° S 17:57:42 66° E 18:03:45 10° NNE
Cosmos 2026 Rocket 4.3 17:52:04 10° N 17:57:44 39° ENE 18:03:26 10° SE
Cosmos 2278 Rocket 2.1 17:52:28 10° SSW 17:58:07 86° ESE 18:02:47 16° NNE
NOAA 6 4.1 17:55:23 10° SE 18:00:20 50° ENE 18:05:17 10° N
BREEZE-M DEB (TANK) 3.3 17:58:20 10° SW 18:01:07 57° SSE 18:03:16 32° E
Aureole 3 Rocket 2.3 17:58:12 10° SSW 18:01:12 75° WNW 18:03:11 21° N
BREEZE-M DEB (TANK) 2.9 17:59:28 10° WSW 18:02:02 85° SSE 18:04:09 33° ENE
SL-16 R/B 4.2 18:00:02 10° N 18:05:28 32° WNW 18:10:53 10° WSW
Geosat 4.1 18:04:10 31° ESE 18:06:14 52° NE 18:11:06 10° NNW
Cosmos 2251 Rocket 3.4 18:03:40 10° SSW 18:08:57 79° ESE 18:12:38 21° NNE
YAOGAN 1 2.4 18:07:09 10° SSE 18:11:24 80° ENE 18:15:41 10° NNW
Cosmos 371 Rocket 3.5 18:07:59 10° S 18:12:34 47° ESE 18:12:52 46° E
Cosmos 304 Rocket 3.9 18:09:05 10° S 18:13:38 49° ESE 18:13:57 48° E
Cosmos 841 Rocket 3.4 18:09:12 10° NNW 18:14:27 65° ENE 18:17:15 27° SE
SJ 16-02 1.2 18:10:56 10° S 18:15:11 63° ESE 18:15:42 57° ENE
SL-19 R/B 4.0 18:10:27 10° SSE 18:15:39 85° ENE 18:20:55 10° NNW
CZ-4C R/B 3.9 18:15:41 10° WNW 18:19:51 23° N 18:22:36 17° NNE
Nadezhda 4 Rocket 3.9 18:13:36 10° N 18:19:56 88° W 18:26:10 10° S
Cosmos 1862 3.4 18:18:42 10° NNW 18:22:19 64° W 18:25:54 10° S
Resurs 1-3 3.5 18:19:05 10° SSE 18:23:24 83° W 18:27:43 10° NNW
ATLAS 2AS CENTAUR R/B 3.0 18:17:39 10° NW 18:24:09 45° NE 18:25:35 40° ENE
COSMOS 2406 3.1 18:20:27 10° NNW 18:26:10 80° ENE 18:29:07 30° SE
Cosmos 1627 Rocket 4.4 18:22:18 10° N 18:28:23 61° ENE 18:34:28 10° SSE
Cosmos 1656 Rocket 4.1 18:24:08 10° S 18:28:33 41° SE 18:28:33 41° SE
Cosmos 2195 Rocket 4.4 18:27:28 10° N 18:33:50 81° E 18:40:10 10° SSE
Cosmos 1536 Rocket 4.2 18:30:04 10° NNW 18:34:24 55° W 18:38:41 10° S
Okean 2 Rocket 3.1 18:32:09 10° SSW 18:36:32 77° W 18:37:52 44° N
Cosmos 1190 Rocket 4.2 18:34:36 10° SSW 18:39:53 71° WNW 18:42:26 31° NNE
Cosmos 2344 3.8 18:34:33 10° NW 18:42:24 78° NE 18:47:32 33° SE
Cosmos 676 Rocket 3.9 18:37:27 10° SSW 18:42:45 80° ESE 18:43:15 72° NE
Resurs 01 Rocket 3.2 18:46:22 25° N 18:46:22 25° N 18:48:16 10° N
Meteor 2-3 Rocket 3.6 18:40:00 10° NNW 18:45:45 90° W 18:50:00 18° S
Cosmos 2297 Rocket 4.4 18:47:33 10° N 18:48:17 11° N 18:48:17 11° N
ISS -1.6 18:48:26 10° W 18:50:07 27° W 18:50:07 27° W
Cosmos 1954 Rocket 4.2 18:47:36 10° SSW 18:52:50 68° WNW 18:54:18 46° N
COSMO-SKYMED 1 3.4 18:57:47 43° NW 18:58:09 45° WNW 19:02:05 10° SW
USA 281 3.0 19:02:00 70° E 19:02:27 73° ENE 19:09:01 10° NNW
Cosmos 1943 Rocket 4.1 19:29:11 10° W 19:33:42 24° NW 19:35:40 20° NNW
Cosmos 2278 Rocket 4.2 19:38:30 10° W 19:42:56 23° NW 19:44:37 20° NNW
SJ 16-02 4.1 19:50:42 10° W 19:52:17 16° WNW 19:52:17 16° WNW
CZ-4C R/B 4.4 20:05:08 10° NW 20:07:32 20° NNW 20:07:32 20° NNW
ATLAS 2AS CENTAUR R/B 3.7 20:08:40 10° NW 20:13:01 40° WNW 20:13:01 40° WNW
